DG1ROH Weather Reports


Display with metric or nautical units.
time (UTC)temp
F
wind
direction
speed
MPH
gust
MPH
rain 1hr
in
rain 24hr
in
rain mn
in
humidity
%
barometer
mb
20260506135120 53 73 3.0 10.0 0.00 0.95 0.95 89 1006.6
20260506134917 53 55 2.0 5.0 0.00 0.95 0.95 90 1006.6
20260506134716 53 96 2.0 5.0 0.00 0.95 0.95 90 1006.6
20260506134516 53 17 2.0 5.0 0.00 0.95 0.95 90 1006.5
20260506134317 53 342 2.0 5.0 0.00 0.95 0.95 90 1006.5
20260506133510 53 0 2.0 6.0 0.00 0.95 0.95 91 1006.7
20260506133310 53 47 2.0 6.0 0.00 0.95 0.95 91 1007.0
20260506133111 53 65 3.0 6.0 0.00 0.95 0.95 91 1006.7
20260506132911 52 73 3.0 10.0 0.00 0.95 0.95 91 1006.7
20260506132710 52 62 2.0 10.0 0.00 0.95 0.95 91 1006.7
20260506132508 52 55 2.0 10.0 0.00 0.95 0.95 91 1006.7
20260506132307 52 351 2.0 10.0 0.00 0.95 0.95 91 1006.7
20260506132117 52 54 2.0 10.0 0.00 0.95 0.95 91 1006.7
20260506131907 53 45 1.0 5.0 0.00 0.95 0.95 91 1006.6
20260506131707 53 28 2.0 6.0 0.00 0.95 0.95 91 1006.7
20260506131507 53 52 2.0 8.0 0.00 0.95 0.95 91 1006.7
20260506131304 52 58 3.0 9.0 0.00 0.95 0.95 91 1006.6
20260506131105 52 64 3.0 9.0 0.00 0.95 0.95 91 1006.6
20260506130905 52 77 3.0 9.0 0.00 0.95 0.95 91 1006.6
20260506130704 52 66 3.0 9.0 0.00 0.95 0.95 91 1006.7
20260506130505 53 63 3.0 9.0 0.00 0.95 0.95 91 1006.6
20260506130305 53 19 3.0 9.0 0.00 0.95 0.95 91 1006.6
20260506130105 53 99 4.0 13.0 0.00 0.95 0.95 91 1006.6
20260506125905 53 57 4.0 13.0 0.00 0.95 0.95 91 1006.6
20260506125705 53 52 4.0 13.0 0.00 0.95 0.95 91 1006.6
20260506125505 53 10 4.0 13.0 0.00 0.95 0.95 91 1006.5
20260506125306 53 63 4.0 13.0 0.00 0.95 0.95 91 1006.5
20260506125104 53 80 3.0 9.0 0.00 0.95 0.95 92 1006.4
20260506124905 53 53 3.0 9.0 0.00 0.95 0.95 92 1006.5
20260506124704 53 47 3.0 9.0 0.00 0.95 0.95 92 1006.5
20260506124505 52 22 3.0 9.0 0.00 0.95 0.95 92 1006.5
20260506124305 53 59 3.0 9.0 0.00 0.95 0.95 93 1006.5
20260506124105 52 57 3.0 9.0 0.00 0.95 0.95 92 1006.6
20260506123905 52 24 3.0 9.0 0.00 0.95 0.95 92 1006.6
20260506123704 52 56 2.0 8.0 0.00 0.95 0.95 93 1006.5
20260506123505 52 32 2.0 7.0 0.00 0.95 0.95 92 1006.5
20260506123305 52 65 3.0 9.0 0.00 0.95 0.95 92 1006.5
20260506123104 52 23 3.0 9.0 0.00 0.95 0.95 93 1006.5
20260506122904 52 45 2.0 9.0 0.00 0.95 0.95 93 1006.4
20260506122705 52 9 3.0 9.0 0.00 0.95 0.95 92 1006.5
20260506122505 52 49 2.0 9.0 0.00 0.95 0.95 93 1006.4
20260506122306 52 111 2.0 7.0 0.00 0.95 0.95 93 1006.4
20260506122117 52 355 2.0 6.0 0.00 0.95 0.95 93 1006.4
20260506121905 52 14 2.0 6.0 0.00 0.95 0.95 93 1006.4
20260506121705 52 5 2.0 9.0 0.00 0.95 0.95 93 1006.3
20260506121505 52 344 2.0 9.0 0.00 0.95 0.95 93 1006.4
20260506121305 52 342 2.0 9.0 0.00 0.95 0.95 93 1006.3
20260506121105 52 24 2.0 9.0 0.00 0.95 0.95 93 1006.4
20260506120905 52 61 2.0 9.0 0.00 0.95 0.95 93 1006.3
20260506120704 52 293 3.0 9.0 0.00 0.95 0.95 93 1006.3
20260506120518 52 33 3.0 9.0 0.00 0.95 0.95 93 1006.3
20260506120305 52 53 3.0 9.0 0.00 0.95 0.95 93 1006.3
20260506120105 52 313 3.0 9.0 0.00 0.95 0.95 93 1006.3
20260506115905 52 29 2.0 9.0 0.00 0.95 0.95 93 1006.4
20260506115705 52 306 2.0 9.0 0.00 0.95 0.95 93 1006.3
20260506115504 52 49 2.0 7.0 0.00 0.95 0.95 93 1006.3
20260506115307 52 28 2.0 7.0 0.00 0.95 0.95 93 1006.3
20260506115104 52 26 2.0 7.0 0.00 0.95 0.95 93 1006.2
20260506114904 52 36 2.0 7.0 0.00 0.95 0.95 93 1006.2
20260506114705 52 42 1.0 5.0 0.00 0.95 0.95 93 1006.2
20260506114505 52 351 1.0 5.0 0.00 0.95 0.95 93 1006.2
20260506114305 52 0 1.0 5.0 0.00 0.95 0.95 93 1006.2
20260506114105 53 40 1.0 6.0 0.00 0.95 0.95 94 1006.2
20260506113905 52 37 2.0 6.0 0.00 0.95 0.95 94 1006.1
20260506113704 52 37 2.0 6.0 0.00 0.95 0.95 94 1006.0
20260506113504 52 37 2.0 6.0 0.00 0.95 0.95 94 1006.0
20260506113305 52 5 2.0 6.0 0.00 0.95 0.95 94 1006.0
20260506113105 52 304 2.0 5.0 0.00 0.95 0.95 94 1006.1
20260506112905 52 47 2.0 5.0 0.00 0.95 0.95 94 1006.0
20260506112705 52 0 2.0 5.0 0.00 0.95 0.95 94 1005.9
20260506112504 52 331 2.0 5.0 0.00 0.95 0.95 94 1006.0
20260506112316 52 340 2.0 5.0 0.00 0.95 0.95 94 1005.9
20260506112102 52 46 2.0 5.0 0.00 0.95 0.95 94 1005.9
20260506111502 52 46 3.0 8.0 0.00 0.95 0.95 94 1006.0
20260506111301 52 42 3.0 8.0 0.00 0.95 0.95 94 1005.8
20260506111101 52 71 2.0 8.0 0.00 0.95 0.95 94 1005.7
20260506110901 52 63 2.0 8.0 0.00 0.95 0.95 94 1005.8
20260506110702 52 39 2.0 8.0 0.00 0.95 0.95 94 1005.7
20260506110457 52 65 2.0 8.0 0.00 0.95 0.95 94 1005.7
20260506110257 52 90 2.0 7.0 0.00 0.95 0.95 94 1005.8
20260506110057 52 38 2.0 7.0 0.00 0.95 0.95 94 1005.8
20260506105856 52 38 3.0 9.0 0.00 0.95 0.95 94 1005.7
20260506105657 52 38 3.0 9.0 0.00 0.95 0.95 94 1005.7
20260506105457 52 47 3.0 9.0 0.00 0.95 0.95 94 1005.7
20260506105256 52 355 3.0 9.0 0.00 0.95 0.95 94 1005.7
20260506105057 52 17 3.0 9.0 0.00 0.95 0.95 94 1005.7
20260506104857 52 17 3.0 8.0 0.00 0.95 0.95 94 1005.6
20260506104656 52 336 2.0 8.0 0.00 0.95 0.95 94 1005.7
20260506104457 52 35 2.0 8.0 0.00 0.95 0.95 94 1005.7
20260506104255 52 331 2.0 8.0 0.00 0.95 0.95 94 1005.6
20260506104054 52 0 2.0 8.0 0.01 0.95 0.95 94 1005.7
20260506103853 52 28 2.0 8.0 0.01 0.95 0.95 94 1005.6
20260506103653 52 79 2.0 8.0 0.01 0.95 0.95 94 1005.5
20260506103453 52 330 2.0 8.0 0.01 0.95 0.95 94 1005.5
20260506103252 52 355 2.0 9.0 0.01 0.95 0.95 94 1005.5
20260506103050 52 15 2.0 9.0 0.01 0.95 0.95 94 1005.5
20260506102848 52 53 3.0 9.0 0.01 0.95 0.95 94 1005.5
20260506102648 52 350 3.0 9.0 0.01 0.95 0.95 94 1005.5
20260506102449 52 42 3.0 9.0 0.02 0.95 0.95 94 1005.8
20260506102248 52 46 3.0 9.0 0.02 0.95 0.95 94 1005.4
20260506102047 52 340 3.0 9.0 0.02 0.95 0.95 94 1005.3
20260506101847 52 63 3.0 9.0 0.02 0.95 0.95 94 1005.3
20260506101646 52 34 2.0 9.0 0.02 0.95 0.95 94 1005.4
20260506101446 52 69 2.0 9.0 0.02 0.95 0.95 95 1005.4
20260506101246 52 11 3.0 7.0 0.03 0.95 0.95 95 1005.4
20260506101046 52 68 3.0 10.0 0.03 0.95 0.95 94 1005.4
20260506100846 52 5 3.0 10.0 0.03 0.95 0.95 94 1005.4
20260506100647 51 38 3.0 10.0 0.04 0.95 0.95 94 1005.3
20260506100446 51 63 3.0 10.0 0.04 0.95 0.95 94 1005.4
20260506100248 52 75 3.0 10.0 0.04 0.95 0.95 94 1005.4
20260506100047 52 41 3.0 9.0 0.05 0.95 0.95 95 1005.4
20260506095847 52 55 3.0 9.0 0.05 0.95 0.95 95 1005.3
20260506095645 51 5 3.0 9.0 0.06 0.95 0.95 95 1005.3
20260506095443 51 56 3.0 9.0 0.06 0.95 0.95 94 1005.2
20260506095241 51 20 2.0 7.0 0.07 0.95 0.95 95 1005.2
20260506095041 51 66 2.0 7.0 0.08 0.95 0.95 95 1005.2
20260506094841 51 43 2.0 5.0 0.09 0.95 0.95 94 1005.2
20260506094640 51 57 2.0 10.0 0.09 0.95 0.95 95 1005.2
20260506094441 51 24 2.0 10.0 0.10 0.95 0.95 95 1005.2
20260506094240 51 51 2.0 10.0 0.11 0.95 0.94 95 1005.2
20260506094040 51 18 3.0 10.0 0.11 0.94 0.94 94 1005.2
20260506093841 51 14 3.0 10.0 0.12 0.94 0.94 95 1005.2
20260506093642 51 11 2.0 7.0 0.12 0.94 0.94 95 1005.1
20260506093438 51 9 3.0 7.0 0.13 0.94 0.94 94 1005.1
20260506093236 51 340 3.0 6.0 0.13 0.94 0.94 95 1005.2
20260506093036 51 355 3.0 7.0 0.13 0.94 0.94 94 1005.2
20260506092836 51 319 3.0 7.0 0.14 0.94 0.94 95 1005.0
20260506092634 51 306 2.0 7.0 0.14 0.94 0.94 95 1005.1
20260506092434 51 355 2.0 7.0 0.14 0.94 0.94 95 1005.1
20260506092235 51 27 2.0 7.0 0.14 0.94 0.94 94 1005.1
20260506092036 51 32 2.0 5.0 0.15 0.94 0.94 95 1005.1
20260506091833 51 60 2.0 5.0 0.14 0.93 0.93 94 1005.1
20260506091632 51 343 2.0 5.0 0.15 0.93 0.93 95 1005.1
20260506091433 51 329 2.0 6.0 0.16 0.93 0.92 95 1005.0
20260506091034 51 33 2.0 6.0 0.16 0.92 0.92 95 1005.0
20260506090830 50 53 2.0 6.0 0.17 0.92 0.91 94 1005.0
20260506090630 50 355 3.0 9.0 0.17 0.91 0.91 94 1005.0
20260506090433 50 327 3.0 9.0 0.17 0.91 0.91 94 1005.0
20260506090231 50 44 3.0 9.0 0.18 0.91 0.91 94 1005.1
20260506090030 50 59 3.0 9.0 0.18 0.91 0.91 94 1005.0
20260506085830 50 346 3.0 9.0 0.18 0.91 0.90 94 1005.0
20260506085629 50 41 2.0 6.0 0.18 0.90 0.89 94 1005.0
20260506085431 50 16 2.0 6.0 0.17 0.89 0.88 94 1004.9
20260506085229 50 13 2.0 6.0 0.17 0.88 0.88 94 1005.0
20260506085028 50 49 2.0 6.0 0.17 0.87 0.87 94 1005.1
20260506084828 50 328 2.0 6.0 0.17 0.87 0.86 94 1005.0
20260506084628 50 35 2.0 8.0 0.16 0.86 0.86 94 1005.0
20260506084429 50 17 2.0 8.0 0.16 0.85 0.85 94 1005.0
20260506084228 50 9 2.0 8.0 0.16 0.84 0.84 94 1005.0
20260506084027 50 55 2.0 8.0 0.15 0.83 0.83 94 1005.1
20260506083822 50 350 2.0 8.0 0.15 0.83 0.83 94 1005.1
20260506083623 50 355 2.0 6.0 0.15 0.83 0.82 94 1005.0
20260506083422 50 24 2.0 8.0 0.15 0.82 0.82 94 1005.0
20260506083222 50 30 2.0 8.0 0.15 0.81 0.81 94 1005.0
20260506083022 50 355 3.0 8.0 0.15 0.81 0.81 94 1005.0
20260506082822 50 348 3.0 8.0 0.15 0.80 0.80 94 1005.0
20260506082622 50 47 3.0 8.0 0.15 0.80 0.80 94 1004.9
20260506082422 50 24 3.0 8.0 0.15 0.80 0.80 94 1005.0
20260506082222 50 11 2.0 8.0 0.16 0.80 0.79 94 1005.0
20260506082022 50 76 2.0 8.0 0.16 0.79 0.79 94 1004.9
20260506081822 50 87 2.0 8.0 0.15 0.78 0.78 94 1005.0
20260506081620 50 355 2.0 8.0 0.16 0.78 0.78 94 1005.0
20260506081420 50 15 3.0 8.0 0.16 0.77 0.77 94 1004.9
20260506081220 50 351 3.0 8.0 0.17 0.77 0.76 94 1005.0
20260506081021 50 36 2.0 6.0 0.16 0.76 0.76 94 1004.9
20260506080821 50 11 3.0 7.0 0.16 0.76 0.76 94 1005.0
20260506080618 50 23 2.0 7.0 0.15 0.75 0.75 94 1005.0
20260506080418 50 348 2.0 7.0 0.15 0.74 0.74 94 1005.0
20260506080218 50 26 1.0 7.0 0.14 0.73 0.73 94 1005.0
20260506073411 50 355 2.0 5.0 0.09 0.67 0.67 94 1004.7
20260506073207 50 329 2.0 5.0 0.09 0.66 0.66 94 1004.7
20260506073006 50 338 2.0 7.0 0.09 0.66 0.66 94 1004.7
20260506072804 50 317 2.0 7.0 0.08 0.65 0.65 94 1004.7
20260506072604 50 19 1.0 7.0 0.08 0.65 0.65 94 1004.7
20260506072405 50 71 1.0 7.0 0.08 0.65 0.65 94 1004.6
20260506072204 50 71 2.0 7.0 0.07 0.64 0.64 94 1004.6
20260506072004 50 5 2.0 12.0 0.06 0.63 0.63 94 1004.5
20260506071804 50 5 2.0 12.0 0.06 0.63 0.62 94 1004.6
20260506071605 50 21 3.0 12.0 0.06 0.62 0.62 94 1004.5
20260506071407 50 22 3.0 12.0 0.05 0.61 0.61 94 1004.5
20260506071205 50 50 2.0 12.0 0.05 0.61 0.61 94 1004.4
20260506071002 50 46 2.0 7.0 0.05 0.61 0.60 94 1004.5
20260506070801 50 54 2.0 6.0 0.04 0.60 0.60 94 1004.5
20260506070602 50 34 2.0 9.0 0.04 0.60 0.59 94 1004.4
20260506070404 50 44 2.0 9.0 0.03 0.59 0.59 94 1004.5
20260506070202 50 46 2.0 9.0 0.04 0.59 0.59 94 1004.5
20260506062358 50 28 2.0 8.0 0.03 0.57 0.57 94 1004.3
20260506062158 50 67 2.0 8.0 0.03 0.57 0.57 94 1004.3
20260506062000 50 44 2.0 8.0 0.03 0.57 0.57 94 1004.3
20260506061800 50 81 2.0 8.0 0.03 0.57 0.57 94 1004.4
20260506061601 50 65 3.0 6.0 0.04 0.57 0.57 94 1004.4
20260506061354 50 5 3.0 10.0 0.04 0.57 0.57 94 1004.4
20260506061157 50 75 3.0 10.0 0.03 0.56 0.56 94 1004.4
20260506060952 50 53 4.0 10.0 0.04 0.56 0.56 94 1004.4
20260506060752 50 77 3.0 10.0 0.04 0.56 0.56 94 1004.4
20260506060552 50 69 3.0 10.0 0.04 0.56 0.56 94 1004.4
20260506060352 50 338 3.0 9.0 0.04 0.56 0.56 94 1004.4
20260506060152 50 26 2.0 9.0 0.04 0.55 0.55 94 1004.5
20260506051340 50 55 1.0 5.0 0.09 0.54 0.53 94 1004.6
20260506051140 50 26 2.0 4.0 0.09 0.54 0.52 94 1004.6
20260506050941 50 16 1.0 4.0 0.09 0.54 0.52 94 1004.6
20260506050738 50 14 2.0 4.0 0.09 0.55 0.52 94 1004.6
20260506050537 50 5 2.0 4.0 0.09 0.55 0.52 94 1004.6
20260506050337 49 38 2.0 4.0 0.10 0.55 0.51 94 1004.6
20260506050138 49 55 2.0 5.0 0.10 0.55 0.51 94 1004.6
20260506044938 49 24 2.0 8.0 0.13 0.59 0.50 94 1004.7
20260506044738 49 30 2.0 8.0 0.13 0.60 0.49 94 1004.7
20260506044537 49 21 2.0 8.0 0.13 0.60 0.49 94 1004.8
20260506044337 49 21 2.0 8.0 0.13 0.60 0.49 94 1004.9
20260506044138 49 72 2.0 8.0 0.13 0.60 0.48 94 1004.8
20260506043941 49 51 3.0 6.0 0.14 0.61 0.48 94 1004.7
20260506043743 49 39 3.0 6.0 0.14 0.61 0.47 94 1004.9
20260506043539 49 53 3.0 8.0 0.15 0.62 0.46 94 1004.7
20260506043334 49 47 3.0 8.0 0.14 0.63 0.46 94 1004.8
20260506043133 49 5 3.0 8.0 0.14 0.63 0.46 94 1004.9
20260506042934 49 69 3.0 8.0 0.14 0.65 0.46 94 1004.9
20260506042732 49 30 3.0 8.0 0.15 0.68 0.45 94 1004.8
20260506042532 49 69 2.0 6.0 0.15 0.72 0.45 94 1004.9
20260506042330 49 22 2.0 6.0 0.15 0.79 0.45 94 1004.9
20260506042129 49 46 3.0 8.0 0.16 0.83 0.44 94 1004.9
20260506041930 49 34 3.0 8.0 0.17 0.87 0.44 94 1004.9
20260506041730 49 33 3.0 8.0 0.17 0.89 0.44 94 1004.9
20260506041530 49 80 3.0 8.0 0.18 0.93 0.44 94 1004.9
20260506041329 49 32 3.0 8.0 0.18 0.94 0.43 94 1004.9
20260506041130 49 46 3.0 6.0 0.19 0.94 0.43 94 1004.9
20260506040929 49 5 3.0 7.0 0.20 0.94 0.43 94 1004.9
20260506040729 49 30 2.0 7.0 0.20 0.94 0.43 94 1004.9
20260506040529 49 13 3.0 7.0 0.20 0.94 0.42 94 1004.9
20260506040329 49 49 3.0 7.0 0.20 0.94 0.41 94 1005.0
20260506035933 49 42 3.0 9.0 0.21 0.94 0.40 94 1005.0
20260506035734 49 22 3.0 9.0 0.20 0.94 0.39 94 1004.9
20260506035529 49 42 3.0 9.0 0.20 0.94 0.39 94 1005.0
20260506035329 49 24 3.0 9.0 0.20 0.93 0.38 94 1005.0
20260506035130 49 0 3.0 9.0 0.20 0.92 0.37 94 1004.9
20260506034929 49 0 2.0 6.0 0.20 0.93 0.36 94 1004.9
20260506034728 49 44 2.0 6.0 0.20 0.92 0.36 94 1005.0
20260506034525 49 38 2.0 6.0 0.20 0.92 0.35 94 1005.0
20260506034326 49 13 2.0 6.0 0.20 0.92 0.35 94 1005.1
20260506034126 49 38 2.0 6.0 0.20 0.92 0.34 94 1005.1
20260506033925 49 61 2.0 6.0 0.20 0.92 0.33 94 1005.1
20260506033724 49 350 2.0 6.0 0.20 0.92 0.33 94 1005.1
20260506033524 49 0 2.0 6.0 0.20 0.93 0.32 93 1005.2
20260506033323 49 30 2.0 6.0 0.20 0.94 0.31 93 1005.2
20260506033124 49 34 2.0 5.0 0.20 0.94 0.31 93 1005.3
20260506032923 49 10 2.0 5.0 0.19 0.97 0.31 93 1005.2
20260506032723 49 34 1.0 5.0 0.20 0.98 0.31 93 1005.3
20260506032524 49 46 2.0 5.0 0.19 1.00 0.30 93 1005.4
20260506032320 49 28 2.0 5.0 0.19 1.00 0.29 93 1005.3
20260506032119 49 68 2.0 5.0 0.18 1.00 0.28 93 1005.4
20260506031920 49 9 2.0 5.0 0.18 1.00 0.28 93 1005.3
20260506031719 49 24 2.0 5.0 0.18 1.00 0.27 93 1005.5
20260506031520 49 63 2.0 5.0 0.17 0.99 0.26 93 1005.5
20260506031320 49 346 2.0 5.0 0.17 0.99 0.25 93 1005.5
20260506031117 49 37 2.0 5.0 0.17 0.98 0.24 93 1005.5
20260506030918 49 17 2.0 5.0 0.16 0.98 0.24 93 1005.5
20260506030718 49 59 1.0 4.0 0.16 0.98 0.22 93 1005.5
20260506030518 49 22 2.0 5.0 0.15 0.98 0.21 93 1005.5
20260506030318 49 20 2.0 5.0 0.13 0.98 0.20 93 1005.6
20260506030118 49 5 2.0 5.0 0.13 0.97 0.20 93 1005.5
20260506025918 49 342 2.0 5.0 0.13 0.97 0.19 93 1005.5
20260506025718 49 55 2.0 5.0 0.13 0.97 0.18 93 1005.5
20260506025518 49 5 2.0 5.0 0.13 0.96 0.18 93 1005.5
20260506025317 49 355 1.0 5.0 0.12 0.95 0.17 93 1005.5
20260506025117 49 55 1.0 5.0 0.13 0.95 0.17 93 1005.5
20260506024918 49 5 1.0 5.0 0.12 0.94 0.17 93 1005.5
20260506024717 49 26 1.0 5.0 0.11 0.94 0.16 93 1005.5
20260506024517 49 329 2.0 5.0 0.12 0.94 0.15 93 1005.5
20260506024317 49 23 2.0 6.0 0.11 0.93 0.15 93 1005.5
20260506024117 49 34 2.0 6.0 0.10 0.92 0.14 93 1005.6
20260506023919 49 340 1.0 6.0 0.10 0.91 0.13 93 1005.7
20260506023720 49 22 1.0 6.0 0.10 0.91 0.13 93 1005.6
20260506023519 49 76 2.0 6.0 0.09 0.91 0.13 93 1005.7
20260506023319 49 34 2.0 5.0 0.09 0.91 0.12 93 1005.7
20260506023118 49 54 2.0 7.0 0.09 0.90 0.12 93 1005.7
20260506022919 49 9 2.0 7.0 0.09 0.90 0.11 93 1005.7
20260506022719 49 49 2.0 7.0 0.09 0.89 0.11 93 1005.7
20260506022519 49 342 2.0 7.0 0.09 0.89 0.10 93 1005.7
20260506022319 49 20 2.0 7.0 0.08 0.88 0.10 93 1005.7
20260506022119 49 25 1.0 6.0 0.07 0.87 0.09 93 1005.8
20260506021917 49 20 2.0 7.0 0.08 0.87 0.09 93 1005.8
20260506021718 49 20 2.0 7.0 0.07 0.87 0.09 93 1005.8
20260506021518 49 0 2.0 7.0 0.07 0.87 0.09 93 1005.8
20260506021317 49 0 2.0 7.0 0.07 0.87 0.08 93 1005.8
20260506021118 49 19 2.0 7.0 0.06 0.86 0.08 93 1005.8
20260506020917 49 10 2.0 5.0 0.06 0.86 0.08 93 1005.8
20260506020718 49 11 2.0 4.0 0.06 0.85 0.07 93 1005.9
20260506020517 49 53 2.0 4.0 0.06 0.85 0.07 93 1005.8
20260506020318 49 0 2.0 5.0 0.06 0.85 0.07 93 1005.9
20260506020117 49 15 2.0 5.0 0.06 0.84 0.06 93 1005.9
20260506015917 49 323 2.0 5.0 0.06 0.84 0.06 93 1005.9
20260506015717 49 51 2.0 5.0 0.06 0.84 0.06 93 1005.9
20260506015518 49 23 2.0 5.0 0.05 0.83 0.06 93 1006.0
20260506015314 49 90 2.0 5.0 0.05 0.83 0.05 93 1006.0
20260506015114 49 18 2.0 5.0 0.04 0.83 0.05 93 1006.1
20260506014914 49 23 2.0 5.0 0.04 0.83 0.05 93 1006.0
20260506014714 49 46 2.0 5.0 0.04 0.83 0.04 93 1006.0
20260506014513 49 46 2.0 5.0 0.03 0.82 0.04 93 1006.0
20260506014314 49 16 2.0 5.0 0.04 0.82 0.04 92 1006.0
20260506014114 49 28 1.0 5.0 0.04 0.82 0.04 92 1006.0
20260506013911 50 44 1.0 5.0 0.03 0.81 0.03 92 1006.0
20260506013712 50 42 2.0 5.0 0.03 0.81 0.03 92 1006.0
20260506013511 49 92 2.0 5.0 0.03 0.81 0.03 92 1006.1
20260506013312 49 23 2.0 5.0 0.03 0.81 0.03 92 1006.1
20260506013111 50 29 1.0 5.0 0.02 0.80 0.02 92 1006.1
20260506012912 50 46 2.0 5.0 0.02 0.80 0.02 92 1006.2
20260506012712 50 72 2.0 5.0 0.02 0.80 0.02 92 1006.1
20260506012508 50 18 2.0 5.0 0.02 0.80 0.02 92 1006.1
20260506012309 50 5 2.0 5.0 0.02 0.80 0.02 92 1006.2
20260506012109 50 37 2.0 6.0 0.02 0.80 0.02 92 1006.2
20260506011908 50 35 2.0 6.0 0.02 0.80 0.02 92 1006.3
20260506011704 50 30 2.0 6.0 0.02 0.80 0.02 92 1006.4
20260506011504 50 49 2.0 6.0 0.02 0.80 0.02 92 1006.3
20260506011259 50 32 2.0 6.0 0.02 0.80 0.02 92 1006.4
20260506011100 50 28 2.0 5.0 0.02 0.80 0.02 92 1006.4
20260506010859 50 74 1.0 4.0 0.02 0.80 0.02 92 1006.4
20260506010700 50 13 2.0 7.0 0.02 0.80 0.02 92 1006.4
20260506010459 50 15 2.0 7.0 0.01 0.79 0.01 92 1006.5
20260506010257 50 10 2.0 7.0 0.01 0.79 0.01 92 1006.4
20260506010057 50 32 2.0 7.0 0.01 0.79 0.01 92 1006.5
20260506005857 50 29 3.0 7.0 0.01 0.79 0.01 92 1006.5
20260506005657 50 328 2.0 6.0 0.01 0.79 0.01 92 1006.6
20260506005456 50 44 2.0 6.0 0.01 0.79 0.01 92 1006.5
20260506005255 50 46 2.0 6.0 0.01 0.79 0.01 92 1006.5
20260506005056 50 37 2.0 6.0 0.01 0.79 0.01 92 1006.6
20260506004855 50 70 2.0 6.0 0.01 0.79 0.01 92 1006.6
20260506004656 50 17 2.0 6.0 0.01 0.79 0.01 92 1006.6
20260506004455 50 5 3.0 6.0 0.01 0.79 0.00 92 1006.5
20260506004256 50 22 2.0 6.0 0.00 0.78 0.00 92 1006.6
20260506004055 50 27 2.0 6.0 0.00 0.78 0.00 92 1006.6
20260506003854 50 59 2.0 6.0 0.00 0.78 0.00 92 1006.6
20260506003653 50 5 3.0 6.0 0.00 0.78 0.00 92 1006.7
20260506003453 50 94 2.0 6.0 0.00 0.78 0.00 92 1006.8
20260506003250 50 72 3.0 6.0 0.00 0.78 0.00 92 1006.7
20260506003047 50 71 3.0 6.0 0.00 0.78 0.00 92 1006.7
20260506002848 50 47 3.0 6.0 0.00 0.78 0.00 92 1006.7
20260506002648 50 21 3.0 6.0 0.00 0.78 0.00 92 1006.7
20260506002447 50 46 3.0 6.0 0.00 0.78 0.00 92 1006.8
20260506002247 50 96 3.0 6.0 0.00 0.78 0.00 92 1006.9
20260506002045 51 63 2.0 6.0 0.00 0.78 0.00 92 1006.9
20260506001846 51 62 2.0 6.0 0.00 0.78 0.00 92 1006.9
20260506001645 51 46 2.0 7.0 0.00 0.78 0.00 92 1006.9
20260506001443 51 41 2.0 7.0 0.00 0.78 0.00 92 1006.9
20260506001241 51 35 2.0 7.0 0.00 0.78 0.00 92 1007.0
20260506001035 51 54 2.0 7.0 0.00 0.78 0.00 92 1007.0
20260506000836 51 34 2.0 7.0 0.00 0.78 0.00 92 1007.0
20260506000636 51 53 2.0 7.0 0.00 0.78 0.00 92 1007.1
20260506000433 51 43 2.0 7.0 0.00 0.78 0.00 92 1007.0
20260506000234 51 46 3.0 7.0 0.00 0.78 0.00 92 1007.2
20260506000034 51 45 3.0 6.0 0.00 0.78 0.00 92 1007.1
20260505235833 51 32 3.0 6.0 0.00 0.78 0.00 92 1007.1
20260505235631 51 42 3.0 8.0 0.00 0.78 0.00 92 1007.2
20260505235431 51 44 3.0 8.0 0.00 0.78 0.00 92 1007.0
20260505235231 51 53 3.0 8.0 0.00 0.78 0.00 92 1007.2
20260505235032 51 27 3.0 9.0 0.00 0.78 0.00 92 1007.2
20260505234832 51 26 3.0 10.0 0.00 0.78 0.00 92 1007.1
20260505234631 51 40 3.0 10.0 0.00 0.78 0.00 92 1007.1
20260505234432 51 59 3.0 10.0 0.00 0.78 0.00 92 1007.2
20260505234230 51 49 2.0 10.0 0.00 0.78 0.00 92 1007.2
20260505234031 51 30 2.0 10.0 0.00 0.78 0.00 92 1007.2
20260505233831 51 336 2.0 6.0 0.00 0.78 0.00 92 1007.2
20260505233627 51 325 2.0 6.0 0.00 0.78 0.00 92 1007.2
20260505233427 51 9 2.0 7.0 0.00 0.78 0.00 92 1007.2
20260505233227 51 57 2.0 7.0 0.00 0.78 0.00 92 1007.1
20260505233028 51 59 2.0 7.0 0.00 0.78 0.00 92 1007.1
20260505232826 51 24 2.0 7.0 0.00 0.78 0.00 92 1007.2
20260505232626 51 55 2.0 7.0 0.00 0.78 0.00 92 1007.2
20260505232425 51 53 2.0 8.0 0.00 0.78 0.00 92 1007.3
20260505232225 51 34 2.0 8.0 0.00 0.78 0.00 92 1007.3
20260505232025 51 34 3.0 8.0 0.00 0.78 0.00 92 1007.4
20260505231825 51 65 3.0 9.0 0.00 0.78 0.00 92 1007.5
20260505231624 51 57 3.0 9.0 0.00 0.78 0.00 92 1007.4
20260505231423 51 73 2.0 9.0 0.00 0.78 0.00 92 1007.4
20260505231223 51 29 2.0 9.0 0.00 0.78 0.00 92 1007.5
20260505231024 51 82 2.0 9.0 0.00 0.78 0.00 92 1007.4
20260505230823 51 26 2.0 9.0 0.00 0.78 0.00 92 1007.4
20260505230623 51 19 2.0 9.0 0.00 0.78 0.00 92 1007.4
20260505230422 51 15 3.0 9.0 0.00 0.78 0.00 92 1007.5
20260505230222 51 33 2.0 9.0 0.00 0.78 0.00 92 1007.5
20260505230021 51 53 2.0 9.0 0.00 0.78 0.00 92 1007.5
20260505225821 51 5 2.0 9.0 0.00 0.78 0.00 92 1007.5
20260505225619 51 25 3.0 9.0 0.00 0.78 0.00 92 1007.4
20260505225419 51 17 3.0 10.0 0.00 0.78 0.00 92 1007.6
20260505225214 51 42 3.0 10.0 0.00 0.78 0.00 92 1007.6
20260505225013 51 64 3.0 10.0 0.00 0.78 0.00 92 1007.7
20260505224813 51 62 3.0 10.0 0.00 0.78 0.00 92 1007.7
20260505224614 51 344 4.0 10.0 0.00 0.78 0.00 92 1007.6
20260505224413 51 46 4.0 9.0 0.00 0.78 0.00 92 1007.6
20260505224213 51 32 3.0 9.0 0.00 0.78 0.00 92 1007.7
20260505224014 51 355 4.0 9.0 0.00 0.78 0.00 92 1007.6
20260505223814 51 351 4.0 9.0 0.00 0.78 0.00 92 1007.6
20260505223614 51 71 3.0 9.0 0.00 0.78 0.00 92 1007.6
20260505223415 51 48 3.0 9.0 0.00 0.78 0.00 92 1007.6
20260505223214 51 42 3.0 9.0 0.00 0.78 0.00 92 1007.6
20260505223008 51 30 3.0 9.0 0.00 0.78 0.00 92 1007.6
20260505222809 51 57 3.0 9.0 0.00 0.78 0.00 92 1007.7
20260505222607 51 51 3.0 6.0 0.00 0.78 0.00 92 1007.6
20260505222407 51 349 3.0 6.0 0.00 0.78 0.00 92 1007.7
20260505222207 51 9 3.0 6.0 0.00 0.78 0.00 92 1007.7
20260505222007 51 350 3.0 6.0 0.00 0.78 0.00 92 1007.7
20260505221807 51 78 2.0 6.0 0.00 0.78 0.00 92 1007.7
20260505221607 51 5 3.0 7.0 0.00 0.78 0.00 92 1007.7
20260505221407 51 36 3.0 7.0 0.00 0.78 0.00 92 1007.8
20260505221207 52 28 3.0 7.0 0.00 0.78 0.00 92 1007.6
20260505221006 52 344 3.0 8.0 0.00 0.78 0.00 92 1007.7
20260505220803 52 50 3.0 8.0 0.00 0.78 0.00 92 1007.7
20260505220607 52 57 3.0 8.0 0.00 0.78 0.00 92 1007.7
20260505220403 52 74 3.0 8.0 0.00 0.78 0.00 92 1007.6
20260505220203 52 85 3.0 8.0 0.00 0.78 0.00 92 1007.7
20260505220001 52 39 3.0 9.0 0.00 0.78 0.00 92 1007.8
20260505215802 52 20 3.0 9.0 0.00 0.78 0.78 92 1007.8
20260505215601 52 77 3.0 9.0 0.00 0.78 0.78 92 1007.9
20260505215402 52 34 2.0 9.0 0.00 0.78 0.78 92 1007.8
20260505215202 52 59 2.0 9.0 0.00 0.78 0.78 92 1007.8
20260505215002 52 44 2.0 5.0 0.00 0.78 0.78 92 1007.7
20260505214802 52 18 2.0 5.0 0.00 0.78 0.78 92 1007.7
20260505214602 52 50 2.0 9.0 0.00 0.78 0.78 92 1007.7
20260505214402 52 48 3.0 9.0 0.00 0.78 0.78 92 1007.7
20260505214201 52 69 3.0 9.0 0.00 0.78 0.78 92 1007.7
20260505214002 52 28 3.0 9.0 0.00 0.78 0.78 92 1007.7
20260505213804 52 86 3.0 11.0 0.00 0.78 0.78 92 1007.8
20260505213603 52 59 3.0 11.0 0.00 0.78 0.78 92 1007.8
20260505213404 52 40 3.0 11.0 0.00 0.78 0.78 91 1007.8
20260505213203 52 78 3.0 11.0 0.00 0.78 0.78 91 1008.0
20260505213004 52 37 3.0 11.0 0.00 0.78 0.78 91 1008.0
20260505212803 52 69 2.0 8.0 0.00 0.78 0.78 91 1008.0
20260505212603 52 350 3.0 8.0 0.00 0.78 0.78 91 1008.0
20260505212403 52 67 3.0 9.0 0.00 0.78 0.78 91 1008.0
20260505212203 53 15 3.0 9.0 0.00 0.78 0.78 91 1008.0
20260505212002 53 336 3.0 9.0 0.00 0.78 0.78 91 1008.0
20260505211802 53 31 3.0 9.0 0.00 0.78 0.78 91 1008.0
20260505211602 53 46 3.0 9.0 0.00 0.78 0.78 91 1008.0
20260505211403 53 332 3.0 7.0 0.00 0.78 0.78 91 1008.0
20260505211202 53 21 3.0 8.0 0.00 0.78 0.78 91 1008.0
20260505211003 53 311 2.0 8.0 0.00 0.78 0.78 91 1007.9
20260505210803 53 29 2.0 8.0 0.00 0.78 0.78 91 1008.0
20260505210603 53 346 2.0 8.0 0.00 0.78 0.78 91 1008.1
20260505210402 53 36 2.0 8.0 0.00 0.78 0.78 91 1008.0
20260505210203 53 346 2.0 8.0 0.00 0.78 0.78 91 1008.1
20260505210003 53 355 2.0 8.0 0.00 0.78 0.78 91 1008.0
20260505205802 53 355 2.0 9.0 0.00 0.78 0.78 91 1008.0
20260505205603 53 33 3.0 9.0 0.00 0.78 0.78 91 1008.0
20260505205403 53 67 3.0 9.0 0.00 0.78 0.78 91 1008.0
20260505205203 53 0 3.0 9.0 0.00 0.78 0.78 91 1008.0
20260505205002 53 49 2.0 9.0 0.00 0.78 0.78 91 1008.0
20260505204802 53 74 2.0 6.0 0.00 0.78 0.78 91 1007.9
20260505204603 53 55 3.0 6.0 0.00 0.78 0.78 91 1007.9
20260505204403 53 40 3.0 9.0 0.00 0.78 0.78 91 1008.0
20260505204202 53 42 3.0 9.0 0.00 0.78 0.78 91 1008.0
20260505203959 53 40 3.0 9.0 0.00 0.78 0.78 91 1007.9
20260505203759 53 22 3.0 9.0 0.00 0.78 0.78 91 1007.9
20260505203601 53 333 2.0 9.0 0.00 0.78 0.78 91 1007.9
20260505203359 53 33 2.0 8.0 0.00 0.78 0.78 91 1008.0
20260505203159 53 60 2.0 8.0 0.00 0.78 0.78 91 1007.9
20260505203000 53 51 2.0 8.0 0.00 0.78 0.78 91 1008.0
20260505202754 53 11 3.0 8.0 0.00 0.78 0.78 91 1008.0
20260505202551 53 11 3.0 8.0 0.00 0.78 0.78 91 1008.0
20260505202352 53 32 3.0 9.0 0.00 0.78 0.78 91 1008.0
20260505202152 53 72 3.0 9.0 0.00 0.78 0.78 91 1008.1
20260505201951 53 49 3.0 9.0 0.00 0.78 0.78 91 1008.1
20260505201751 53 53 3.0 10.0 0.00 0.78 0.78 91 1008.0
20260505201550 53 46 4.0 10.0 0.00 0.78 0.78 91 1008.0
20260505201349 53 5 3.0 10.0 0.00 0.78 0.78 91 1008.0
20260505201149 53 30 3.0 10.0 0.00 0.78 0.78 91 1008.0
20260505200950 53 25 3.0 10.0 0.00 0.78 0.78 91 1008.0
20260505200749 53 34 3.0 10.0 0.00 0.78 0.78 91 1008.0
20260505200545 53 355 3.0 8.0 0.00 0.78 0.78 91 1008.0
20260505200346 53 84 3.0 8.0 0.00 0.78 0.78 91 1008.0
20260505200145 53 24 3.0 9.0 0.00 0.78 0.78 91 1007.9
20260505195944 53 103 3.0 9.0 0.00 0.78 0.78 91 1008.0
20260505195743 53 13 2.0 9.0 0.00 0.78 0.78 91 1007.9
20260505195543 53 10 3.0 9.0 0.00 0.78 0.78 91 1008.0
20260505195344 53 34 3.0 9.0 0.00 0.78 0.78 91 1007.9
20260505195144 53 5 3.0 8.0 0.00 0.78 0.78 91 1007.9
20260505194943 53 53 3.0 8.0 0.00 0.78 0.78 91 1007.9
20260505194743 53 15 4.0 8.0 0.00 0.78 0.78 90 1007.9
20260505194543 53 70 4.0 9.0 0.00 0.78 0.78 90 1007.9
20260505194343 53 69 4.0 9.0 0.00 0.78 0.78 90 1007.8
20260505194143 53 22 4.0 9.0 0.00 0.78 0.78 90 1007.8
20260505193944 53 68 3.0 9.0 0.00 0.78 0.78 90 1007.9
20260505193743 53 122 3.0 9.0 0.00 0.78 0.78 90 1007.9
20260505193544 53 28 3.0 9.0 0.00 0.78 0.78 90 1007.9
20260505193343 54 0 3.0 10.0 0.00 0.78 0.78 90 1008.0
20260505193137 54 351 3.0 10.0 0.00 0.78 0.78 90 1007.9
20260505192938 54 39 3.0 10.0 0.00 0.78 0.78 90 1007.9
20260505192740 54 355 4.0 10.0 0.00 0.78 0.78 90 1008.0
20260505192537 54 52 4.0 10.0 0.00 0.78 0.78 90 1008.0
20260505192338 54 77 3.0 10.0 0.00 0.78 0.78 90 1008.0
20260505192137 54 355 4.0 10.0 0.00 0.78 0.78 90 1008.0
20260505191937 54 55 3.0 10.0 0.00 0.78 0.78 90 1007.9
20260505191737 54 49 3.0 10.0 0.00 0.78 0.78 90 1008.0
20260505191538 54 43 2.0 8.0 0.00 0.78 0.78 90 1007.9
20260505191340 54 0 3.0 8.0 0.00 0.78 0.78 90 1007.9
20260505191139 54 62 3.0 9.0 0.00 0.78 0.78 90 1007.9
20260505190938 54 35 3.0 9.0 0.00 0.78 0.78 90 1008.0
20260505190737 54 17 3.0 9.0 0.00 0.78 0.78 90 1007.9
20260505190534 54 83 3.0 9.0 0.00 0.78 0.78 90 1007.9
20260505190334 54 54 3.0 9.0 0.00 0.78 0.78 90 1007.9
20260505190132 54 26 2.0 9.0 0.00 0.78 0.78 89 1007.9
20260505185932 54 346 2.0 6.0 0.00 0.78 0.78 89 1007.9
20260505185732 55 55 2.0 8.0 0.00 0.78 0.78 89 1007.8
20260505185532 55 34 2.0 8.0 0.00 0.78 0.78 89 1007.8
20260505185335 55 34 2.0 8.0 0.00 0.78 0.78 89 1007.8
20260505185133 55 20 2.0 8.0 0.00 0.78 0.78 89 1007.8
20260505184933 55 5 3.0 8.0 0.00 0.78 0.78 89 1007.9
20260505184731 55 21 2.0 8.0 0.00 0.78 0.78 89 1007.8
20260505184532 55 51 3.0 8.0 0.00 0.78 0.78 89 1007.8
20260505184333 55 77 3.0 9.0 0.00 0.78 0.78 89 1007.7
20260505184132 55 348 3.0 9.0 0.00 0.78 0.78 89 1007.8
20260505183932 55 58 3.0 9.0 0.00 0.78 0.78 89 1007.7
20260505183732 55 14 3.0 9.0 0.00 0.78 0.78 89 1007.7
20260505183532 55 60 3.0 9.0 0.00 0.78 0.78 89 1007.7
20260505183333 55 44 2.0 8.0 0.00 0.78 0.78 89 1007.7
20260505183132 55 13 2.0 6.0 0.00 0.78 0.78 89 1007.8
20260505182931 55 47 2.0 6.0 0.00 0.78 0.78 88 1007.7
20260505182732 56 107 2.0 5.0 0.00 0.78 0.78 88 1007.7
20260505182533 56 68 2.0 8.0 0.00 0.78 0.78 88 1007.7
20260505182333 56 48 2.0 8.0 0.00 0.78 0.78 88 1007.7
20260505182131 56 67 2.0 8.0 0.00 0.78 0.78 88 1007.7
20260505181932 56 67 3.0 9.0 0.00 0.78 0.78 88 1007.7
20260505181732 56 29 3.0 9.0 0.00 0.78 0.78 88 1007.7
20260505181531 56 51 3.0 9.0 0.00 0.78 0.78 88 1007.7
20260505181333 56 32 3.0 10.0 0.00 0.78 0.78 88 1007.7
20260505181132 56 66 3.0 10.0 0.00 0.78 0.78 88 1007.6
20260505180934 56 21 3.0 10.0 0.00 0.78 0.78 87 1007.7
20260505180732 56 64 4.0 10.0 0.00 0.78 0.78 87 1007.8
20260505180533 56 336 4.0 10.0 0.00 0.78 0.78 87 1007.7
20260505180333 56 74 3.0 10.0 0.00 0.78 0.78 87 1007.6
20260505180132 56 26 3.0 10.0 0.00 0.78 0.78 87 1007.7
20260505175934 57 54 3.0 7.0 0.00 0.78 0.78 87 1007.5
20260505175731 57 324 3.0 7.0 0.00 0.78 0.78 87 1007.6
20260505175531 57 101 3.0 7.0 0.00 0.78 0.78 87 1007.6
20260505175332 57 0 3.0 6.0 0.00 0.78 0.78 87 1007.6
20260505175132 57 69 3.0 10.0 0.00 0.78 0.78 87 1007.6
20260505174932 57 16 3.0 10.0 0.00 0.78 0.78 87 1007.6
20260505174731 57 350 3.0 10.0 0.00 0.78 0.78 86 1007.7
20260505174533 57 48 3.0 10.0 0.00 0.78 0.78 86 1007.6
20260505174331 58 62 3.0 10.0 0.00 0.78 0.78 86 1007.6
20260505174133 58 86 3.0 10.0 0.00 0.78 0.78 86 1007.7
20260505173931 58 61 3.0 10.0 0.00 0.78 0.78 86 1007.6
20260505173731 58 15 3.0 10.0 0.00 0.78 0.78 86 1007.6
20260505173532 58 44 3.0 10.0 0.00 0.78 0.78 85 1007.6
20260505173331 58 56 3.0 10.0 0.00 0.78 0.78 85 1007.6
20260505173131 59 64 3.0 10.0 0.00 0.78 0.78 85 1007.6
20260505172932 59 24 3.0 10.0 0.00 0.78 0.78 85 1007.6
20260505172732 59 5 3.0 10.0 0.00 0.78 0.78 85 1007.5
20260505172532 59 346 3.0 10.0 0.00 0.78 0.78 85 1007.6
20260505172332 59 348 2.0 6.0 0.00 0.78 0.78 85 1007.5
20260505172132 59 49 2.0 6.0 0.00 0.78 0.78 85 1007.5
20260505171932 59 73 2.0 6.0 0.00 0.78 0.78 85 1007.5
20260505171732 59 30 3.0 6.0 0.00 0.78 0.78 85 1007.5
20260505171531 59 20 3.0 8.0 0.00 0.78 0.78 84 1007.6
20260505171332 59 26 3.0 8.0 0.00 0.78 0.78 84 1007.6
20260505171132 59 68 3.0 8.0 0.00 0.78 0.78 84 1007.6
20260505170931 59 344 3.0 8.0 0.00 0.78 0.78 84 1007.6
20260505170731 59 19 3.0 8.0 0.00 0.78 0.78 84 1007.7
20260505170531 59 309 2.0 8.0 0.00 0.78 0.78 85 1007.6
20260505170332 59 26 2.0 5.0 0.00 0.78 0.78 85 1007.5
20260505170132 60 0 3.0 7.0 0.00 0.78 0.78 85 1007.6
20260505165931 59 355 3.0 8.0 0.00 0.78 0.78 85 1007.6
20260505165731 59 44 3.0 8.0 0.00 0.78 0.78 85 1007.7
20260505165532 59 26 3.0 8.0 0.00 0.78 0.78 85 1007.7
20260505165332 59 355 3.0 8.0 0.00 0.78 0.78 85 1007.6
20260505165132 59 16 3.0 8.0 0.00 0.78 0.78 85 1007.6
20260505164930 59 35 3.0 8.0 0.00 0.78 0.78 85 1007.6
20260505164731 60 33 3.0 8.0 0.00 0.78 0.78 85 1007.6
20260505164530 60 9 3.0 8.0 0.00 0.78 0.78 84 1007.5
20260505164331 60 355 3.0 10.0 0.00 0.78 0.78 84 1007.5
20260505164130 60 346 3.0 10.0 0.00 0.78 0.78 84 1007.6
20260505163930 60 55 3.0 10.0 0.00 0.78 0.78 84 1007.6
20260505163730 60 25 4.0 11.0 0.00 0.78 0.78 84 1007.6
20260505163530 60 22 4.0 11.0 0.00 0.78 0.78 84 1007.6
20260505163330 60 46 3.0 11.0 0.00 0.78 0.78 84 1007.6
20260505163130 60 37 4.0 11.0 0.00 0.78 0.78 84 1007.7
20260505162931 60 339 3.0 11.0 0.00 0.78 0.78 84 1007.7
20260505162731 60 355 3.0 11.0 0.00 0.78 0.78 84 1007.7
20260505162530 60 97 3.0 11.0 0.00 0.78 0.78 84 1007.7
20260505162331 60 0 4.0 11.0 0.00 0.78 0.78 84 1007.7
20260505162130 60 32 4.0 13.0 0.00 0.78 0.78 83 1007.7
20260505161930 61 28 4.0 13.0 0.00 0.78 0.78 83 1007.7
20260505161730 61 49 3.0 13.0 0.00 0.78 0.78 83 1007.7
20260505161531 61 355 3.0 13.0 0.00 0.78 0.78 83 1007.7
20260505161329 61 355 3.0 13.0 0.00 0.78 0.78 83 1007.7
20260505161129 61 36 3.0 12.0 0.00 0.78 0.78 83 1007.7
20260505160929 61 0 2.0 9.0 0.00 0.78 0.78 83 1007.7
20260505160729 61 342 2.0 6.0 0.00 0.78 0.78 83 1007.6
20260505160529 61 47 2.0 6.0 0.00 0.78 0.78 83 1007.7
20260505160329 61 335 2.0 6.0 0.00 0.78 0.78 83 1007.8
20260505160129 61 20 2.0 7.0 0.00 0.78 0.78 83 1007.9
20260505153325 63 342 2.0 4.0 0.00 0.78 0.78 81 1007.9
20260505153125 62 324 2.0 5.0 0.00 0.78 0.78 81 1007.8
20260505152925 62 346 2.0 5.0 0.00 0.78 0.78 81 1007.8
20260505152723 62 16 2.0 5.0 0.00 0.78 0.78 81 1007.8
20260505152522 62 18 3.0 7.0 0.00 0.78 0.78 81 1007.8
20260505152321 62 44 3.0 7.0 0.00 0.78 0.78 80 1007.7
20260505152121 62 19 3.0 7.0 0.00 0.78 0.78 81 1007.7
20260505151921 62 0 3.0 10.0 0.00 0.78 0.78 81 1007.7
20260505151720 62 5 3.0 10.0 0.00 0.78 0.78 80 1007.7
20260505151518 62 38 3.0 10.0 0.00 0.78 0.78 81 1007.7
20260505151317 63 45 3.0 10.0 0.00 0.78 0.78 80 1007.8
20260505151117 63 51 3.0 10.0 0.00 0.78 0.78 80 1007.7
20260505150917 63 60 2.0 6.0 0.00 0.78 0.78 81 1007.8
20260505150717 63 20 1.0 4.0 0.00 0.78 0.78 80 1007.8
20260505150517 63 295 1.0 4.0 0.00 0.78 0.78 80 1007.8
20260505150315 63 294 1.0 4.0 0.00 0.78 0.78 80 1007.9
20260505150115 63 355 1.0 3.0 0.00 0.78 0.78 81 1007.8
20260505140504 62 355 2.0 8.0 0.00 0.78 0.78 82 1008.0
20260505140305 62 30 2.0 8.0 0.00 0.78 0.78 82 1008.0
20260505140110 62 322 3.0 8.0 0.00 0.78 0.78 83 1008.0